Regional Weather Roundup
Issued by NWS

Home | Current Version | Previous Version | Graphics & Text | Print | Product List | Glossary Off
Versions: 1 2 3 4 5 6 7 8 9 10 11 12 13 14 15 16 17 18 19 20 21 22 23 24 25 26 27 28 29 30 31 32 33 34 35 36 37 38 39 40 41 42 43 44 45 46 47 48 49 50

000
ASUS43 KDMX 290106
RWRIA

WEATHER ROUNDUP FOR IOWA
NATIONAL WEATHER SERVICE DES MOINES IA
800 PM CDT FRI APR 28 2017

NOTE: "FAIR" INDICATES FEW OR NO CLOUDS BELOW 12,000 FEET WITH NO
SIGNIFICANT WEATHER AND/OR OBSTRUCTIONS TO VISIBILITY.

* - THESE STATIONS ARE NOT NWS STATIONS...THUS NOT UNDER NWS
QUALITY CONTROL.  THEY ALSO DO NOT REPORT WEATHER SUCH
AS PRECIPITATION OR FOG.

IAZ001>003-012>014-020>022-031>034-043>046-290200-
   NORTHWEST IOWA

CITY           SKY/WX    TMP DP  RH WIND       PRES   REMARKS
CARROLL *      CLOUDY    43  41  93 NE13      29.96R
CHEROKEE *     CLOUDY    45  35  68 NE6       29.99R
DENISON *      CLOUDY    43  37  81 NE10      29.98R
LE MARS *      CLOUDY    46  32  57 NE7       30.00R
ORANGE CITY *  CLOUDY    46  34  61 NE5       30.01R
SHELDON *      CLOUDY    46  34  61 NE13      29.99R
SIOUX CITY     CLOUDY    46  35  65 NE8       29.99R
SPENCER        CLOUDY    46  33  60 NE15      29.99R
STORM LAKE *   CLOUDY    43  34  70 NE17      29.97S
$$

IAZ055>058-069>071-079>083-090>094-290200-
   SOUTHWEST IOWA

CITY           SKY/WX    TMP DP  RH WIND       PRES   REMARKS
ATLANTIC *     CLOUDY    43  39  87 NE12      29.95R
AUDUBON *      CLOUDY    41  37  87 N14       29.95R
CLARINDA *     CLOUDY    43  41  93 NE15      29.94R
COUNCIL BLFS * CLOUDY    41  41 100 NE16      29.95R
CRESTON *      CLOUDY    41  41 100 NE16      29.91R
HARLAN  *      CLOUDY    41  41 100 NE14G20   29.98R
LAMONI         CLOUDY    42  41  96 NE14      29.87R
RED OAK *      CLOUDY    43  41  93 N10       29.94R FOG
SHENANDOAH *   CLOUDY    43  41  93 N12       29.94R FOG
$$

IAZ047>049-059>061-072>074-084-290200-
   CENTRAL IOWA

CITY           SKY/WX    TMP DP  RH WIND       PRES   REMARKS
AMES           CLOUDY    44  40  85 NE12      29.95R
ANKENY *       CLOUDY    43  39  87 NE13      29.94R
BOONE *        CLOUDY    43  39  87 NE8G20    29.94R
CHARITON *     CLOUDY    43  41  93 NE12G18   29.89R
DES MOINES     CLOUDY    45  39  79 NE12      29.93R
GRINNELL*      CLOUDY    42  40  94 NE14G21   29.93S
KNOXVILLE *    CLOUDY    43  41  93 NE9G15    29.90R
MARSHALLTOWN   CLOUDY    44  40  85 NE12      29.95R
NEWTON *       CLOUDY    43  41  93 NE17G25   29.92R
PELLA *        CLOUDY    43  40  91 NE7       29.93R
PERRY *        CLOUDY    43  39  84 NE12      29.95R
$$

IAZ004>006-015-016-023>025-035-036-290200-
   NORTH CENTRAL IOWA

CITY           SKY/WX    TMP DP  RH WIND       PRES   REMARKS
ALGONA *       CLOUDY    45  36  70 NE10      29.99R
CLARION *      CLOUDY    43  43 100 N10       29.99R
ESTHERVILLE    CLOUDY    44  35  70 NE12      30.00R
FORT DODGE *   CLOUDY    43  34  70 NE12      29.99R
MASON CITY     CLOUDY    43  38  82 N7        30.00R
FOREST CITY *  CLOUDY    43  37  81 N6        30.01R
WEBSTER CITY * CLOUDY    43  37  81 N9        29.96R
IOWA FALLS *   CLOUDY    44  38  79 N10       29.98R
$$

IAZ007>011-017>019-026>030-037>042-050>054-066-290200-
   NORTHEAST IOWA

CITY           SKY/WX    TMP DP  RH WIND       PRES   REMARKS
CEDAR RAPIDS   LGT RAIN  43  43 100 N13       29.91R FOG
CHARLES CITY * MIX PCPN  43  39  87 N8        29.99R
CLINTON *      LGT RAIN  46  45  96 NE13      29.91R
DECORAH *      CLOUDY    43  39  87 N6        29.97R
DUBUQUE        CLOUDY    44  42  93 N17       29.94R FOG
MONTICELLO *   CLOUDY    45  43  93 N12       29.93R
OELWEIN *      CLOUDY    43  41  93 NE9       29.96R
WATERLOO       CLOUDY    44  38  79 N8        29.96R
$$

IAZ064-065-067-068-078-290200-
   EAST CENTRAL IOWA

CITY           SKY/WX    TMP DP  RH WIND       PRES   REMARKS
DAVENPORT      CLOUDY    47  45  93 NE13      29.89R
IOWA CITY      CLOUDY    46  43  89 N10       29.92R
MT. PLEASANT * CLOUDY    46  46 100 N9        29.86F FOG
MUSCATINE *    CLOUDY    46  46 100 N9        29.89R
QUAD CITIES    CLOUDY    50  47  89 NE7       29.88R
$$

IAZ062-063-075>077-085>089-095>099-290200-
   SOUTHEAST IOWA

CITY           SKY/WX    TMP DP  RH WIND       PRES   REMARKS
BURLINGTON     CLOUDY    52  51  97 N8        29.85R FOG
FAIRFIELD *    CLOUDY    43  43 100 N15       29.87F FOG
FORT MADISON * CLOUDY    52  52 100 N5        29.85R FOG
KEOKUK *       CLOUDY    54  52  94 NE5       29.83R FOG
OSKALOOSA *    CLOUDY    42  41  96 NE17      29.90S
CENTERVILLE *  CLOUDY    41  41 100 N12G17    29.89R
OTTUMWA        CLOUDY    44  43  96 NE13      29.89R FOG
WASHINGTON *   MIX PCPN  45  45 100 N14       29.89S
$$

ABBREVIATIONS USED IN REMARKS
   TC - TEMPERATURES IN CELSIUS
  WCI - WIND CHILL INDEX
   HX - HEAT INDEX
  VSB - VISIBILITY
$$





USA.gov is the U.S. government's official web portal to all federal, state and local government web resources and services.